Time,TemperatureF,DewpointF,PressureIn,WindDirection,WindDirectionDegrees,WindSpeedMPH,WindSpeedGustMPH,Humidity,HourlyPrecipIn,Conditions,Clouds,dailyrainin,SolarRadiationWatts/m^2,SoftwareType,DateUTC
2013-03-17 00:06:00,49.5,48.0,30.16,NW,325,5.0,13.0,96,0.00,,,0.01,0,weatherlink.com 1.10,2013-03-17 07:06:00,
2013-03-17 00:21:00,49.5,48.0,30.16,West,281,5.0,13.0,96,0.00,,,0.01,0,weatherlink.com 1.10,2013-03-17 07:21:00,
2013-03-17 00:35:00,49.3,48.0,30.15,WNW,284,7.0,13.0,96,0.00,,,0.01,0,weatherlink.com 1.10,2013-03-17 07:35:00,
2013-03-17 00:51:00,49.1,48.0,30.15,NNW,340,4.0,15.0,96,0.00,,,0.01,0,weatherlink.com 1.10,2013-03-17 07:51:00,
2013-03-17 01:06:00,49.0,48.0,30.15,NW,326,1.0,11.0,96,0.00,,,0.00,0,weatherlink.com 1.10,2013-03-17 08:06:00,
2013-03-17 01:21:00,49.0,48.0,30.14,North,360,4.0,12.0,96,0.00,,,0.00,0,weatherlink.com 1.10,2013-03-17 08:21:00,
2013-03-17 01:37:00,49.1,48.0,30.14,West,271,11.0,12.0,96,0.00,,,0.00,0,weatherlink.com 1.10,2013-03-17 08:37:00,
2013-03-17 01:52:00,49.2,48.0,30.14,NW,325,6.0,16.0,96,0.00,,,0.00,0,weatherlink.com 1.10,2013-03-17 08:52:00,
2013-03-17 02:07:00,49.0,48.0,30.14,NW,311,6.0,12.0,96,0.00,,,0.00,0,weatherlink.com 1.10,2013-03-17 09:07:00,
2013-03-17 02:22:00,48.9,48.0,30.14,North,360,4.0,12.0,96,0.00,,,0.00,0,weatherlink.com 1.10,2013-03-17 09:22:00,
2013-03-17 02:52:00,48.7,48.0,30.14,NW,317,5.0,9.0,96,0.00,,,0.00,0,weatherlink.com 1.10,2013-03-17 09:52:00,
2013-03-17 03:07:00,48.8,48.0,30.14,WNW,287,7.0,12.0,97,0.00,,,0.00,0,weatherlink.com 1.10,2013-03-17 10:07:00,
2013-03-17 03:23:00,48.7,48.0,30.14,WNW,292,8.0,11.0,96,0.00,,,0.00,0,weatherlink.com 1.10,2013-03-17 10:23:00,
2013-03-17 03:38:00,48.6,48.0,30.14,North,355,1.0,9.0,96,0.00,,,0.00,0,weatherlink.com 1.10,2013-03-17 10:38:00,
2013-03-17 03:53:00,48.6,48.0,30.14,North,5,1.0,11.0,96,0.00,,,0.00,0,weatherlink.com 1.10,2013-03-17 10:53:00,
2013-03-17 04:08:00,48.6,48.0,30.13,NNW,331,7.0,11.0,96,0.00,,,0.00,0,weatherlink.com 1.10,2013-03-17 11:08:00,
2013-03-17 04:22:00,48.4,47.0,30.13,NW,322,3.0,8.0,96,0.00,,,0.00,0,weatherlink.com 1.10,2013-03-17 11:22:00,
2013-03-17 04:37:00,48.2,47.0,30.13,NNW,327,3.0,7.0,96,0.00,,,0.00,0,weatherlink.com 1.10,2013-03-17 11:37:00,
2013-03-17 04:53:00,48.7,48.0,30.13,NNE,15,5.0,10.0,96,0.00,,,0.00,0,weatherlink.com 1.10,2013-03-17 11:53:00,
2013-03-17 05:08:00,48.1,47.0,30.13,WNW,294,4.0,9.0,96,0.00,,,0.00,0,weatherlink.com 1.10,2013-03-17 12:08:00,
2013-03-17 05:23:00,47.8,47.0,30.12,NW,324,4.0,10.0,96,0.00,,,0.00,0,weatherlink.com 1.10,2013-03-17 12:23:00,
2013-03-17 05:38:00,47.6,47.0,30.12,NW,313,2.0,9.0,96,0.00,,,0.00,0,weatherlink.com 1.10,2013-03-17 12:38:00,
2013-03-17 05:54:00,47.6,47.0,30.12,NNW,346,3.0,12.0,96,0.00,,,0.00,0,weatherlink.com 1.10,2013-03-17 12:54:00,
2013-03-17 06:09:00,47.7,47.0,30.13,West,281,5.0,14.0,96,0.00,,,0.00,0,weatherlink.com 1.10,2013-03-17 13:09:00,
2013-03-17 06:24:00,48.1,47.0,30.14,WNW,286,9.0,16.0,95,0.00,,,0.00,0,weatherlink.com 1.10,2013-03-17 13:24:00,
2013-03-17 06:39:00,48.5,47.0,30.14,WNW,299,6.0,19.0,95,0.00,,,0.00,0,weatherlink.com 1.10,2013-03-17 13:39:00,
2013-03-17 06:54:00,48.4,47.0,30.15,North,5,5.0,18.0,95,0.00,,,0.00,0,weatherlink.com 1.10,2013-03-17 13:54:00,
2013-03-17 07:09:00,48.6,47.0,30.15,NW,325,7.0,12.0,95,0.00,,,0.00,0,weatherlink.com 1.10,2013-03-17 14:09:00,
2013-03-17 07:24:00,48.5,47.0,30.15,NNW,344,9.0,16.0,95,0.00,,,0.00,11,weatherlink.com 1.10,2013-03-17 14:24:00,
2013-03-17 07:39:00,48.8,48.0,30.15,West,273,9.0,21.0,95,0.00,,,0.00,37,weatherlink.com 1.10,2013-03-17 14:39:00,
2013-03-17 07:55:00,49.0,48.0,30.15,NW,325,6.0,20.0,96,0.00,,,0.00,56,weatherlink.com 1.10,2013-03-17 14:55:00,
2013-03-17 08:09:00,49.1,48.0,30.15,NW,319,7.0,15.0,96,0.00,,,0.00,56,weatherlink.com 1.10,2013-03-17 15:09:00,
2013-03-17 08:25:00,49.9,49.0,30.15,WNW,295,7.0,12.0,96,0.00,,,0.00,156,weatherlink.com 1.10,2013-03-17 15:25:00,
2013-03-17 08:39:00,50.4,49.0,30.14,WNW,296,5.0,11.0,94,0.00,,,0.00,269,weatherlink.com 1.10,2013-03-17 15:39:00,
2013-03-17 08:55:00,50.7,49.0,30.15,NW,320,10.0,16.0,92,0.00,,,0.00,178,weatherlink.com 1.10,2013-03-17 15:55:00,
2013-03-17 09:10:00,50.5,49.0,30.15,WNW,296,11.0,22.0,93,0.00,,,0.00,308,weatherlink.com 1.10,2013-03-17 16:10:00,
2013-03-17 09:25:00,51.0,48.0,30.15,NNW,327,4.0,21.0,90,0.00,,,0.00,406,weatherlink.com 1.10,2013-03-17 16:25:00,
2013-03-17 09:41:00,52.6,50.0,30.15,West,267,4.0,9.0,89,0.00,,,0.00,443,weatherlink.com 1.10,2013-03-17 16:41:00,
2013-03-17 09:56:00,53.0,49.0,30.16,WNW,302,6.0,11.0,87,0.00,,,0.00,490,weatherlink.com 1.10,2013-03-17 16:56:00,
2013-03-17 10:11:00,53.0,49.0,30.16,NW,315,9.0,14.0,86,0.00,,,0.00,527,weatherlink.com 1.10,2013-03-17 17:11:00,
2013-03-17 10:26:00,54.3,50.0,30.16,NW,305,5.0,12.0,84,0.00,,,0.00,578,weatherlink.com 1.10,2013-03-17 17:26:00,
2013-03-17 10:41:00,54.9,50.0,30.15,WSW,254,7.0,14.0,83,0.00,,,0.00,617,weatherlink.com 1.10,2013-03-17 17:41:00,
2013-03-17 10:56:00,54.3,49.0,30.15,WNW,286,11.0,18.0,83,0.00,,,0.00,668,weatherlink.com 1.10,2013-03-17 17:56:00,
2013-03-17 11:11:00,55.0,50.0,30.15,WNW,286,8.0,14.0,83,0.00,,,0.00,673,weatherlink.com 1.10,2013-03-17 18:11:00,
2013-03-17 11:27:00,54.6,50.0,30.15,WNW,302,10.0,14.0,85,0.00,,,0.00,703,weatherlink.com 1.10,2013-03-17 18:27:00,
2013-03-17 11:42:00,55.0,51.0,30.14,West,279,7.0,14.0,87,0.00,,,0.00,733,weatherlink.com 1.10,2013-03-17 18:42:00,
2013-03-17 11:57:00,54.7,50.0,30.13,NW,322,8.0,14.0,85,0.00,,,0.00,701,weatherlink.com 1.10,2013-03-17 18:57:00,
2013-03-17 12:12:00,55.8,50.0,30.13,WNW,284,7.0,15.0,82,0.00,,,0.00,795,weatherlink.com 1.10,2013-03-17 19:12:00,
2013-03-17 12:27:00,56.9,50.0,30.13,West,280,5.0,13.0,79,0.00,,,0.00,830,weatherlink.com 1.10,2013-03-17 19:27:00,
2013-03-17 12:42:00,56.7,51.0,30.12,WNW,299,8.0,14.0,81,0.00,,,0.00,744,weatherlink.com 1.10,2013-03-17 19:42:00,
2013-03-17 12:57:00,56.0,50.0,30.13,NW,306,7.0,15.0,81,0.00,,,0.00,826,weatherlink.com 1.10,2013-03-17 19:57:00,
2013-03-17 13:12:00,56.3,50.0,30.13,NW,317,7.0,19.0,80,0.00,,,0.00,749,weatherlink.com 1.10,2013-03-17 20:12:00,
2013-03-17 13:27:00,55.5,50.0,30.13,WNW,285,14.0,16.0,81,0.00,,,0.00,835,weatherlink.com 1.10,2013-03-17 20:27:00,
2013-03-17 13:43:00,56.5,50.0,30.13,WNW,294,14.0,23.0,78,0.00,,,0.00,812,weatherlink.com 1.10,2013-03-17 20:43:00,
2013-03-17 13:58:00,55.9,50.0,30.11,NW,320,11.0,21.0,80,0.00,,,0.00,791,weatherlink.com 1.10,2013-03-17 20:58:00,
2013-03-17 14:12:00,54.8,49.0,30.11,WNW,296,12.0,21.0,81,0.00,,,0.00,786,weatherlink.com 1.10,2013-03-17 21:12:00,
2013-03-17 14:28:00,55.0,49.0,30.11,NW,309,9.0,21.0,81,0.00,,,0.00,838,weatherlink.com 1.10,2013-03-17 21:28:00,
2013-03-17 14:42:00,55.5,49.0,30.10,WNW,292,18.0,21.0,79,0.00,,,0.00,889,weatherlink.com 1.10,2013-03-17 21:42:00,
2013-03-17 14:57:00,56.2,49.0,30.10,NW,311,9.0,19.0,76,0.00,,,0.00,712,weatherlink.com 1.10,2013-03-17 21:57:00,
2013-03-17 15:13:00,55.9,49.0,30.09,NW,313,14.0,19.0,77,0.00,,,0.00,735,weatherlink.com 1.10,2013-03-17 22:13:00,
2013-03-17 15:28:00,56.3,49.0,30.09,NW,314,7.0,16.0,77,0.00,,,0.00,671,weatherlink.com 1.10,2013-03-17 22:28:00,
2013-03-17 15:44:00,55.1,48.0,30.09,NNE,12,6.0,18.0,78,0.00,,,0.00,631,weatherlink.com 1.10,2013-03-17 22:44:00,
2013-03-17 15:59:00,55.4,49.0,30.10,West,277,12.0,18.0,79,0.00,,,0.00,596,weatherlink.com 1.10,2013-03-17 22:59:00,
2013-03-17 16:14:00,54.3,48.0,30.11,WNW,288,14.0,20.0,79,0.00,,,0.00,563,weatherlink.com 1.10,2013-03-17 23:14:00,
2013-03-17 16:28:00,54.6,48.0,30.10,West,265,15.0,19.0,77,0.00,,,0.00,478,weatherlink.com 1.10,2013-03-17 23:28:00,
2013-03-17 16:44:00,55.1,48.0,30.11,WNW,289,11.0,15.0,76,0.00,,,0.00,378,weatherlink.com 1.10,2013-03-17 23:44:00,
2013-03-17 16:59:00,54.1,47.0,30.10,NW,306,14.0,15.0,78,0.00,,,0.00,373,weatherlink.com 1.10,2013-03-17 23:59:00,
2013-03-17 17:14:00,53.1,46.0,30.09,West,261,19.0,21.0,77,0.00,,,0.00,304,weatherlink.com 1.10,2013-03-18 00:14:00,
2013-03-17 17:28:00,53.0,46.0,30.10,WNW,288,6.0,14.0,78,0.00,,,0.00,234,weatherlink.com 1.10,2013-03-18 00:28:00,
2013-03-17 17:44:00,52.4,46.0,30.09,West,271,10.0,15.0,79,0.00,,,0.00,165,weatherlink.com 1.10,2013-03-18 00:44:00,
2013-03-17 18:00:00,51.7,46.0,30.08,WNW,295,5.0,18.0,81,0.00,,,0.00,113,weatherlink.com 1.10,2013-03-18 01:00:00,
2013-03-17 18:14:00,51.2,46.0,30.07,NW,309,11.0,13.0,83,0.00,,,0.00,93,weatherlink.com 1.10,2013-03-18 01:14:00,
2013-03-17 18:30:00,50.8,46.0,30.08,WNW,292,7.0,15.0,84,0.00,,,0.00,72,weatherlink.com 1.10,2013-03-18 01:30:00,
2013-03-17 18:45:00,50.5,47.0,30.08,NW,314,11.0,14.0,86,0.00,,,0.00,51,weatherlink.com 1.10,2013-03-18 01:45:00,
2013-03-17 19:00:00,50.3,47.0,30.07,NNW,331,12.0,14.0,87,0.00,,,0.00,21,weatherlink.com 1.10,2013-03-18 02:00:00,
2013-03-17 19:14:00,50.3,47.0,30.07,WNW,302,8.0,19.0,88,0.00,,,0.00,5,weatherlink.com 1.10,2013-03-18 02:14:00,
2013-03-17 19:30:00,50.1,47.0,30.07,West,279,8.0,20.0,88,0.00,,,0.00,0,weatherlink.com 1.10,2013-03-18 02:30:00,
2013-03-17 19:45:00,50.0,47.0,30.07,NW,311,7.0,20.0,89,0.00,,,0.00,0,weatherlink.com 1.10,2013-03-18 02:45:00,
2013-03-17 19:59:00,50.0,47.0,30.06,NW,322,4.0,15.0,89,0.00,,,0.00,0,weatherlink.com 1.10,2013-03-18 02:59:00,
2013-03-17 20:16:00,50.0,47.0,30.06,NW,313,2.0,21.0,89,0.00,,,0.00,0,weatherlink.com 1.10,2013-03-18 03:16:00,
2013-03-17 20:31:00,49.8,47.0,30.07,North,350,2.0,10.0,89,0.00,,,0.00,0,weatherlink.com 1.10,2013-03-18 03:31:00,
2013-03-17 20:46:00,50.2,47.0,30.07,WNW,300,6.0,11.0,90,0.00,,,0.00,0,weatherlink.com 1.10,2013-03-18 03:46:00,
2013-03-17 21:01:00,50.2,47.0,30.07,NNW,346,4.0,13.0,90,0.00,,,0.00,0,weatherlink.com 1.10,2013-03-18 04:01:00,
2013-03-17 21:16:00,50.1,47.0,30.08,NW,323,7.0,12.0,90,0.00,,,0.00,0,weatherlink.com 1.10,2013-03-18 04:16:00,
2013-03-17 21:31:00,49.9,47.0,30.08,WNW,286,1.0,7.0,90,0.00,,,0.00,0,weatherlink.com 1.10,2013-03-18 04:31:00,
2013-03-17 21:46:00,49.2,47.0,30.08,West,281,5.0,6.0,91,0.00,,,0.00,0,weatherlink.com 1.10,2013-03-18 04:46:00,
2013-03-17 22:00:00,48.7,46.0,30.09,NNW,348,2.0,5.0,91,0.00,,,0.00,0,weatherlink.com 1.10,2013-03-18 05:00:00,
2013-03-17 22:16:00,48.8,46.0,30.09,NW,323,0.0,8.0,91,0.00,,,0.00,0,weatherlink.com 1.10,2013-03-18 05:16:00,
2013-03-17 22:31:00,48.4,46.0,30.08,NNW,343,1.0,7.0,91,0.00,,,0.00,0,weatherlink.com 1.10,2013-03-18 05:31:00,
2013-03-17 22:46:00,48.0,46.0,30.09,NNW,344,0.0,2.0,92,0.00,,,0.00,0,weatherlink.com 1.10,2013-03-18 05:46:00,
2013-03-17 23:02:00,47.8,46.0,30.10,WNW,284,0.0,1.0,92,0.00,,,0.00,0,weatherlink.com 1.10,2013-03-18 06:02:00,
2013-03-17 23:17:00,48.2,46.0,30.10,WNW,290,0.0,4.0,92,0.00,,,0.00,0,weatherlink.com 1.10,2013-03-18 06:17:00,
2013-03-17 23:47:00,48.1,46.0,30.11,WNW,282,0.0,1.0,92,0.00,,,0.00,0,weatherlink.com 1.10,2013-03-18 06:47:00,